Weather History for Broken Bow, NE

Change the Weather History Date:

Monday, January 21, 2013

  Actual Average Record
Temperature  
Mean Temperature 16 °F 26 °F  
Max Temperature 21 °F 38 °F 74 °F (1950)
Min Temperature 10 °F 14 °F -21 °F (1949)
Degree Days  
Heating Degree Days 49 39  
Month to date heating degree days 835 826  
Cooling Degree Days 0 0  
Month to date cooling degree days 0 0  
Year to date cooling degree days 0 0  
Moisture  
Dew Point 9 °F    
Average Humidity 72    
Maximum Humidity 92    
Minimum Humidity 52    
Precipitation  
Precipitation 0.00 in 0.01 in 0.45 in (1915)
Sea Level Pressure  
Sea Level Pressure 30.36 in    
Wind  
Wind Speed 5 mph (NNE)    
Max Wind Speed 14 mph    
Max Gust Speed 16 mph    
Visibility 10 miles    
Events      
T = Trace of Precipitation, MM = Missing Value Source: NWS Daily Summary

Daily Weather History Graph

Daily Weather History Graph

Search for Another Location

Airport:

Trip Planner

Search our weather history database for the weather conditions in past years. The results will help you decide how hot, cold, wet, or windy it might be!

Date:

Astronomy

Jan. 21, 2013 Rise Set
Actual Time 7:59 AM CST 5:41 PM CST
Civil Twilight 7:28 AM CST 6:11 PM CST
Nautical Twilight 6:55 AM CST 6:45 PM CST
Astronomical Twilight 6:22 AM CST 7:18 PM CST
Moon 1:22 PM CST (1/21) 3:28 AM CST (1/21)
Length of Visible Light 10h 42m
Length of Day
9h 42m
Waxing Gibbous, 75% of the Moon is Illuminated
Jan 21
Waxing Gibbous
Jan 26
Full
Feb 3
Last Quarter
Feb 10
New
Feb 17
First Quarter

Hourly Weather History & Observations

Time (CST) Temp. Windchill Dew Point Humidity Pressure Visibility Wind Dir Wind Speed Gust Speed Precip Events Conditions
12:29 AM 19.4 °F 14.3 °F 12.2 °F 74% 30.31 in 10.0 mi NNW 3.5 mph - N/A   Overcast
12:53 AM 21.0 °F 12.4 °F 12.9 °F 71% 30.41 in 10.0 mi NNW 6.9 mph - N/A   Overcast
1:53 AM 19.9 °F 9.3 °F 12.9 °F 74% 30.42 in 10.0 mi NNW 9.2 mph - N/A   Overcast
2:53 AM 19.9 °F 12.1 °F 12.0 °F 71% 30.41 in 10.0 mi North 5.8 mph - N/A   Overcast
3:53 AM 19.0 °F 9.0 °F 10.0 °F 68% 30.42 in 10.0 mi North 8.1 mph - N/A   Overcast
4:53 AM 15.1 °F 5.2 °F 10.0 °F 80% 30.40 in 10.0 mi North 6.9 mph - N/A   Overcast
5:31 AM 14.0 °F 6.5 °F 8.6 °F 79% 30.29 in 10.0 mi North 4.6 mph - N/A   Overcast
5:53 AM 14.0 °F 8.2 °F 8.6 °F 79% 30.29 in 10.0 mi North 3.5 mph - N/A   Overcast
6:53 AM 14.0 °F 8.2 °F 8.1 °F 77% 30.42 in 10.0 mi NE 3.5 mph - N/A   Overcast
7:53 AM 14.0 °F - 8.1 °F 77% 30.42 in 10.0 mi Calm Calm - N/A   Overcast
8:53 AM 14.0 °F - 8.1 °F 77% 30.41 in 10.0 mi Calm Calm - N/A   Overcast
9:53 AM 16.0 °F - 9.0 °F 74% 30.42 in 10.0 mi Calm Calm - N/A   Overcast
10:53 AM 17.1 °F - 9.0 °F 71% 30.43 in 10.0 mi Calm Calm - N/A   Overcast
11:19 AM 19.4 °F - 8.6 °F 63% 30.30 in 10.0 mi Calm Calm - N/A   Overcast
11:53 AM 19.0 °F 9.0 °F 7.0 °F 59% 30.40 in 10.0 mi North 8.1 mph - N/A   Overcast
12:53 PM 19.9 °F 13.4 °F 8.1 °F 60% 30.36 in 10.0 mi North 4.6 mph - N/A   Overcast
1:53 PM 19.9 °F 9.3 °F 7.0 °F 57% 30.35 in 10.0 mi North 9.2 mph - N/A   Overcast
2:53 PM 19.9 °F 13.4 °F 6.1 °F 55% 30.33 in 10.0 mi NNE 4.6 mph - N/A   Overcast
3:53 PM 21.0 °F 13.4 °F 7.0 °F 55% 30.33 in 10.0 mi NNE 5.8 mph - N/A   Overcast
4:53 PM 21.0 °F - 8.1 °F 57% 30.32 in 10.0 mi Calm Calm - N/A   Overcast
5:53 PM 19.9 °F 13.4 °F 8.1 °F 60% 30.32 in 10.0 mi ENE 4.6 mph - N/A   Overcast
6:53 PM 17.1 °F 11.7 °F 8.1 °F 68% 30.34 in 10.0 mi East 3.5 mph - N/A   Overcast
7:53 PM 14.0 °F 3.9 °F 6.1 °F 71% 30.34 in 10.0 mi ESE 6.9 mph - N/A   Clear
8:53 PM 10.9 °F 2.9 °F 6.1 °F 81% 30.33 in 10.0 mi SE 4.6 mph - N/A   Partly Cloudy
9:53 PM 12.0 °F 2.7 °F 7.0 °F 80% 30.33 in 10.0 mi East 5.8 mph - N/A   Mostly Cloudy
10:53 PM 10.9 °F 0.2 °F 8.1 °F 88% 30.35 in 10.0 mi ESE 6.9 mph - N/A   Overcast
11:53 PM 10.9 °F 0.2 °F 7.0 °F 84% 30.32 in 10.0 mi SE 6.9 mph - N/A   Mostly Cloudy